Lexington Weather

Lexington, Massachusetts, USA

55°F
5/17/2024 11:57pm 
  • Lexington Conditions: Clear
  • Temperature: 54.7°F / 12.6°CColder 1.2°F than last hour.
  • Dew Point: 50.0°FDecreased 0.5°Fsince last hour.
  • Relative Humidity: 84%Increased 2.0% since last hour.
  • Wind: Calm, 10-min avg: Calm, gust: None
  • Barometer: 29.96 in Steady
  • Visibility: 10 miles
  • Rain Today: 0.00 in
  •   

Regional Weather Roundup
for Boston, MA

        
000
ASUS41 KBOX 180310
RWRBOX

REGIONAL WEATHER ROUNDUP
NATIONAL WEATHER SERVICE BOSTON/NORTON MA
1100 PM EDT FRI MAY 17 2024

NOTE:  "FAIR" INDICATES FEW OR NO CLOUDS BELOW 12,000 FEET WITH NO 
SIGNIFICANT WEATHER AND/OR OBSTRUCTIONS TO VISIBILITY.

MAZALL-180400-
EASTERN MASSACHUSETTS
  
CITY           SKY/WX    TMP DP  RH WIND       PRES   REMARKS
BOSTON         PTCLDY    55  49  80 N10       30.01S                  
BEVERLY        PTCLDY    52  49  89 N6        30.01F                  
LAWRENCE       CLOUDY    54  49  83 NE6       30.04S                  
BEDFORD        MOCLDY    54  48  80 NE8       30.00F                  
NORWOOD        MOCLDY    56  50  80 CALM      30.00F                  
MARSHFIELD     MOCLDY    54  50  87 VRB7      29.99S                  
PLYMOUTH       MOCLDY    54  48  80 N10       29.97F                  
TAUNTON        CLOUDY    56  48  74 VRB3      29.98F                  
NEW BEDFORD    CLOUDY    56  49  77 N10G18    29.96F                  
$$

MAZALL-180400-
CAPE COD AND THE ISLANDS
  
CITY           SKY/WX    TMP DP  RH WIND       PRES   REMARKS
FALMOUTH       DRIZZLE   52  48  87 NE14      29.95F                  
HYANNIS        LGT RAIN  51  47  86 N13       29.93F FOG              
CHATHAM        LGT RAIN  51  48  89 NE10G25   29.95F FOG              
PROVINCETOWN   CLOUDY    53  49  86 NE10      29.98F                  
NANTUCKET      CLOUDY    50  48  93 NE21G32   29.90F                  
MARTHAS VNYRD  LGT RAIN  53  51  93 N15       29.93F                  
$$
 
MAZALL-180400-
CENTRAL AND WESTERN MASSACHUSETTS
  
CITY           SKY/WX    TMP DP  RH WIND       PRES   REMARKS
WORCESTER      CLOUDY    57  45  64 NE3       30.00F                  
FITCHBURG      CLOUDY    59  47  64 NE3       30.02S                  
ORANGE         CLOUDY    61  50  67 NE5       30.01F                  
SPRINGFIELD    MOCLDY    63  52  67 E3        29.96F                  
WESTFIELD      CLOUDY    63  49  60 E5        29.98S                  
NORTH ADAMS    CLOUDY    65  47  52 E10       29.98R                  
PITTSFIELD     CLOUDY    62  49  62 E5        29.98R                  
$$
 
RIZALL-180400-
RHODE ISLAND
  
CITY           SKY/WX    TMP DP  RH WIND       PRES   REMARKS
PROVIDENCE     MOCLDY    56  47  71 N10       29.98F                  
NEWPORT        CLOUDY    55  47  74 N12       29.96F                  
BLOCK ISLAND   CLOUDY    56  46  69 N12       29.95F                  
SMITHFIELD     PTCLDY    53  47  79 NE7       29.99F                  
WESTERLY       CLOUDY    60  46  59 N7        29.95F                  
$$
 
CTZALL-180400-
CONNECTICUT
  
CITY           SKY/WX    TMP DP  RH WIND       PRES   REMARKS
BRADLEY INTL   MOCLDY    64  47  53 NE5       29.98S                  
HARTFORD       CLOUDY    63  44  50 VRB6      29.96S                  
PLAINVILLE     FAIR      63  44  49 NE6       29.97S                  
BRIDGEPORT     MOCLDY    60  54  80 CALM      29.96R                  
DANBURY        MOCLDY    60  54  80 SE5       29.97S                  
GROTON         CLOUDY    62  50  64 N10       29.95S                  
NEW HAVEN      MOCLDY    60  56  86 CALM      29.96S                  
CHESTER        MOCLDY    61  54  77 N7        29.96S                  
MERIDEN        PTCLDY    58  53  84 CALM      29.97R                  
WILLIMANTIC    CLOUDY    59  44  57 NE9       29.99S                  
OXFORD         PTCLDY    59  52  77 CALM      29.98S                  
$$

MEZ002-015-021-024-NHZ003-005-008-011-012-014-VTZ005-008-180400-
NORTHERN NEW ENGLAND
  
CITY           SKY/WX    TMP DP  RH WIND       PRES   REMARKS
PORTLAND ME    MOCLDY    56  51  84 NE3       30.05F                  
BANGOR ME      CLOUDY    57  50  77 CALM      30.05S                  
CONCORD NH     CLOUDY    59  53  80 E3        30.03S                  
MANCHESTER NH  CLOUDY    60  50  69 NE6       30.01F                  
NASHUA NH      CLOUDY    59  54  83 NE5       30.03S                  
PORTSMOUTH NH  MOCLDY    56  50  80 NE6       30.03S                  
JAFFREY NH     CLOUDY    59  49  69 CALM      30.02F                  
KEENE NH       CLOUDY    61  49  64 VRB3      30.02S                  
BURLINGTON VT  PTCLDY    70  48  45 SE12      29.96R                  
MT. WASHINGTON MOCLDY    39  36  87 SE36        N/A  WCI  26          
$$

NYZ052-076-180400-
EASTERN NEW YORK
  
CITY           SKY/WX    TMP DP  RH WIND       PRES   REMARKS
ALBANY         MOCLDY    67  49  52 SE7       29.96R                  
NEW YORK CITY  CLOUDY    63  50  62 S5        29.95R                  
$$
 
ANZALL-180400-
MARINE OBSERVATIONS
  
STATION/POSITION TIME  TEMP    WIND        PRES    VSBY  WAVE
                       AIR SEA DIR/SP/G                  HT/PER
                 (UTC) (F)     (DEG/KT/KT) (MB)    (MI)  (FT/S)
BOSTON BUOY      0240   53 53   20/ 14/ 16 1016.0F
BUZZARDS BAY     0200   55      30/ 20/ 22 1014.1F
NANTUCKET SOUND  0250   54 55   30/ 17/ 21 1013.0F         2/ 3
MASS BAY-STELLWA 0104   53 51   30/ 12/ 14 1016.1S  1 7/8  4/ 8
ISLE OF SHOALS   0200   53      30/ 10/ 12 1016.2R
S OF BLOCK IS    0256      49                N/A           5/ 8
$$

......................KEY.........................
  SKY/WX - SKY CONDITION/PRESENT WEATHER
  TMP    - TEMPERATURE IN FAHRENHEIT
  DWPT   - DEWPOINT IN FAHRENHEIT
  RH     - RELATIVE HUMIDITY IN PERCENT
  WIND   - DIRECTION AND SPEED IN MPH
  PRES   - MEAN SEA LEVEL PRESSURE IN INCHES OF HG
  WCI    - WIND CHILL INDEX
  VSB    - VISIBILITY IN MILES
  HX     - HEAT INDEX
  TC     - TEMPERATURE IN CELSIUS
  VRB    - VARIABLE WIND DIRECTION
  N/A    - NOT AVAILABLE
  
      

Other recent Regional Weather Roundups

Fri May 17, 10:10pm EDT

Fri May 17, 9:10pm EDT

Fri May 17, 8:10pm EDT

Fri May 17, 7:10pm EDT

Fri May 17, 6:10pm EDT

Fri May 17, 5:10pm EDT

Fri May 17, 4:10pm EDT

Fri May 17, 3:10pm EDT

Fri May 17, 2:10pm EDT

Fri May 17, 1:10pm EDT

Fri May 17, 12:10pm EDT

Fri May 17, 11:10am EDT

Fri May 17, 10:10am EDT

Fri May 17, 9:10am EDT

Fri May 17, 8:10am EDT

Fri May 17, 7:10am EDT

Fri May 17, 6:10am EDT

Fri May 17, 5:10am EDT

Fri May 17, 4:10am EDT

Fri May 17, 3:10am EDT

Fri May 17, 2:10am EDT

Fri May 17, 1:10am EDT

Fri May 17, 12:10am EDT

Thu May 16, 11:10pm EDT

Thu May 16, 10:10pm EDT

Thu May 16, 9:10pm EDT

Thu May 16, 8:10pm EDT

Thu May 16, 7:10pm EDT

Thu May 16, 6:10pm EDT

Thu May 16, 5:10pm EDT

Thu May 16, 4:10pm EDT

Thu May 16, 3:10pm EDT

Thu May 16, 2:10pm EDT

Thu May 16, 1:10pm EDT

Thu May 16, 12:10pm EDT

Thu May 16, 11:10am EDT

Thu May 16, 10:10am EDT

Thu May 16, 9:10am EDT

Thu May 16, 8:10am EDT

Thu May 16, 7:10am EDT

Thu May 16, 6:10am EDT

Thu May 16, 5:10am EDT

Thu May 16, 4:10am EDT

Thu May 16, 3:10am EDT

Thu May 16, 2:10am EDT

Thu May 16, 1:10am EDT

Thu May 16, 12:10am EDT

Wed May 15, 11:10pm EDT

Wed May 15, 10:10pm EDT

Wed May 15, 9:10pm EDT

Wed May 15, 8:10pm EDT

Wed May 15, 7:10pm EDT

Wed May 15, 6:10pm EDT

Wed May 15, 5:10pm EDT

Wed May 15, 4:10pm EDT

Wed May 15, 3:10pm EDT

Wed May 15, 2:10pm EDT

Wed May 15, 1:10pm EDT

Wed May 15, 12:10pm EDT

Wed May 15, 11:10am EDT

Wed May 15, 10:10am EDT

Wed May 15, 9:10am EDT

Wed May 15, 8:10am EDT

Wed May 15, 7:10am EDT

Wed May 15, 6:10am EDT

Wed May 15, 5:10am EDT

Wed May 15, 4:10am EDT

Wed May 15, 3:10am EDT

Wed May 15, 2:10am EDT

Wed May 15, 1:10am EDT

Wed May 15, 12:10am EDT

Tue May 14, 11:10pm EDT

Tue May 14, 10:10pm EDT

Tue May 14, 9:10pm EDT

Tue May 14, 8:10pm EDT

Tue May 14, 7:10pm EDT

Tue May 14, 6:10pm EDT

Tue May 14, 5:10pm EDT

Tue May 14, 4:10pm EDT

Tue May 14, 3:10pm EDT

Tue May 14, 2:10pm EDT

Tue May 14, 1:10pm EDT

Tue May 14, 12:10pm EDT

Tue May 14, 11:10am EDT

Tue May 14, 10:10am EDT

Tue May 14, 9:10am EDT

Tue May 14, 8:10am EDT

Tue May 14, 7:10am EDT

Tue May 14, 6:10am EDT

Tue May 14, 5:10am EDT

Tue May 14, 4:10am EDT

Tue May 14, 3:10am EDT

Tue May 14, 2:10am EDT

Tue May 14, 1:10am EDT

Tue May 14, 12:10am EDT

Mon May 13, 11:10pm EDT

Mon May 13, 10:10pm EDT

Mon May 13, 9:10pm EDT

Mon May 13, 8:10pm EDT

Mon May 13, 7:10pm EDT

Mon May 13, 6:10pm EDT

Mon May 13, 5:10pm EDT

Mon May 13, 4:10pm EDT

Mon May 13, 3:10pm EDT

Mon May 13, 2:10pm EDT

Mon May 13, 1:10pm EDT

Mon May 13, 12:10pm EDT

Mon May 13, 11:10am EDT

Mon May 13, 10:10am EDT

Mon May 13, 9:10am EDT

Mon May 13, 8:10am EDT

Mon May 13, 7:10am EDT

Mon May 13, 6:10am EDT

Mon May 13, 5:10am EDT

Mon May 13, 4:10am EDT

Mon May 13, 3:10am EDT

Mon May 13, 2:10am EDT

Mon May 13, 1:10am EDT

Mon May 13, 12:10am EDT

Sun May 12, 11:10pm EDT

Sun May 12, 10:10pm EDT

Sun May 12, 9:10pm EDT

Sun May 12, 8:10pm EDT

Sun May 12, 7:10pm EDT

Sun May 12, 6:10pm EDT

Sun May 12, 5:10pm EDT

Sun May 12, 4:10pm EDT

Sun May 12, 3:10pm EDT

Sun May 12, 2:10pm EDT

Sun May 12, 1:10pm EDT

Sun May 12, 12:10pm EDT

Sun May 12, 11:10am EDT

Sun May 12, 10:10am EDT

Sun May 12, 9:10am EDT

Sun May 12, 8:10am EDT

Sun May 12, 7:10am EDT

Sun May 12, 6:10am EDT

Sun May 12, 5:10am EDT

Sun May 12, 4:10am EDT

Sun May 12, 3:10am EDT

Sun May 12, 2:10am EDT

Sun May 12, 1:10am EDT

Sun May 12, 12:10am EDT

Sat May 11, 11:10pm EDT

Sat May 11, 10:10pm EDT

Sat May 11, 9:10pm EDT

Sat May 11, 8:10pm EDT

Sat May 11, 7:10pm EDT

Sat May 11, 6:10pm EDT

Sat May 11, 5:10pm EDT

Sat May 11, 4:10pm EDT

Sat May 11, 3:10pm EDT

Sat May 11, 2:10pm EDT

Sat May 11, 1:10pm EDT

Sat May 11, 12:10pm EDT

Sat May 11, 11:10am EDT

Sat May 11, 10:10am EDT

Sat May 11, 9:10am EDT

Sat May 11, 8:10am EDT

Sat May 11, 7:10am EDT

Sat May 11, 6:10am EDT

Sat May 11, 5:10am EDT

Sat May 11, 4:10am EDT

Sat May 11, 3:10am EDT

Sat May 11, 2:10am EDT

Sat May 11, 1:10am EDT

Sat May 11, 12:10am EDT